www.pogodaiklimat.ru
Время
и дата
03:53 30.12
04:53 30.12
05:53 30.12
06:53 30.12
07:53 30.12
08:53 30.12
09:53 30.12
10:53 30.12
11:53 30.12
12:53 30.12
13:53 30.12
14:53 30.12
15:53 30.12
16:53 30.12
17:53 30.12
18:53 30.12
19:53 30.12
20:53 30.12
21:53 30.12
22:53 30.12
23:53 30.12
00:53 31.12
01:27 31.12
01:53 31.12
02:53 31.12
03:53 31.12
04:53 31.12
05:53 31.12
06:53 31.12
07:03 31.12
07:53 31.12
08:28 31.12
08:53 31.12
09:34 31.12
09:49 31.12
09:53 31.12
10:03 31.12
10:53 31.12
11:49 31.12
11:53 31.12
12:53 31.12
13:53 31.12
14:27 31.12
14:34 31.12
14:53 31.12
15:53 31.12
16:01 31.01
16:04 31.01
Ветер
(напр.,м/с)
Видим. Явления Облачность Т
(С)
Тd
(С)
f
(%)
Тe
(С)
Тes
(С)
Комфортность P
(гПа)
Po
(гПа)
Тmin
(С)
Tmax
(С)
R
(мм)
R24
(мм)
S
(см)
Ю 1 16 км 10/10 1440 м +6.1 +3.3 82 +4 +4 1014.3 925.7
Ю 1 16 км 10/10 1380 м +6.1 +2.8 79 +4 +4 1014.5 925.7 +5.6 +8.3 1.3
ЮВ 1 16 км 10/10 1410 м +6.1 +2.8 79 +3 +3 1014.5 925.7
ЮВ 2 16 км 8/8 1440 м +6.7 +2.2 73 +3 +3 1014.8 926.0
ЮВ 2 16 км 8/8 1320 м +6.1 +2.2 76 +2 +2 1015.3 926.0
ЮВ 2 16 км ясно +7.8 +2.8 71 +5 +5 1015.4 926.3
Ю 1 16 км ясно +8.9 +3.3 68 +7 +8 1015.8 926.9
ЮВ 1 16 км ясно +10.6 +3.3 61 +10 +14 1015.5 926.6 +5.6 +10.6
ЮВ 1 16 км ясно +11.7 +3.3 56 +11 +17 1014.0 925.4
штиль 0 16 км ясно +13.3 +3.3 51 +13 +23 1013.2 924.8
штиль 0 16 км 2/0 3600 м
[Ac]
+14.4 +2.8 46 +14 +23 1012.3 923.9
ЮВ 1 16 км 8/2 1650 м
[Ac]
+13.9 +3.3 49 +14 +17 1012.3 923.9
Ю 1 16 км слабый дождь 10/10 1650 м +13.3 +5.6 60 +13 +13 1012.5 924.2
Ю 2 16 км слабый дождь 10/8 1350 м
[Ac]
+11.1 +7.8 80 +9 +9 1012.9 924.2 +10.6 +14.4 1.0
ЮВ 2 16 км слабый дождь 10/2 1650 м
[Ac]
+11.1 +8.3 83 +9 +9 1012.8 924.2
В 1 16 км 10/8 1650 м
[Ac]
+10.6 +8.3 86 +9 +9 1013.3 924.5
В 1 16 км 10/2 840 м
[Ac]
+10.0 +8.3 89 +8 +8 1012.9 924.2 0.8
В 1 16 км 10/0 3300 м
[Ac]
+10.0 +7.8 86 +8 +8 1012.5 923.9
В 1 16 км 10/10 1500 м +10.6 +7.8 83 +9 +9 1012.1 923.6
ЮВ 2 16 км 10/10 1500 м +10.0 +7.8 86 +7 +7 1011.4 923.2 +9.4 +11.1 0.8
штиль 0 16 км 8/8 1650 м +10.0 +7.8 86 +9 +9 1010.9 922.6
В 1 16 км 10/10 1020 м +10.0 +8.3 89 +8 +8 1009.8 922.0
В 1 16 км 10/10 870 м +10.6 +8.3 86 +9 +9 921.4
В 1 16 км 10/10 810 м +10.6 +7.8 83 +9 +9 1008.5 920.8
ЮВ 1 16 км 10/10 780 м +10.6 +7.8 83 +9 +9 1008.0 920.5
Ю 1 10 км слабый дождь, дымка 10/8 810 м
[Ac]
+9.4 +8.3 93 +8 +8 1007.3 919.5
СЗ 1 5 км дождь, дымка 10/10 930 м +9.4 +8.9 97 +8 +8 1007.4 919.5 +9.4 +10.6 2.8 4.6
нст 1 16 км слабый дождь 10/10 90 м +9.4 +8.9 97 +8 +8 1007.1 919.2
штиль 0 6 км слабый дождь, дымка 10/10 120 м +10.0 +9.4 96 +9 +9 1006.8 918.9
Ю 1 5 км слабый дождь, дымка 10/10 120 м +10.0 +8.9 93 +8 +8 919.2
ЮВ 1 16 км 10/10 1500 м +10.0 +9.4 96 +8 +8 1006.9 918.9 3.3
ЮВ 1 16 км 10/10 600 м +10.0 +9.4 96 +8 +8 919.2
СВ 1 16 км 10/10 600 м +11.1 +10.0 93 +10 +10 1006.8 918.9
В 1 16 км 10/10 870 м +12.2 +10.6 90 +11 +11 918.9
В 1 16 км 10/10 900 м +13.0 +11.0 88 +12 +12 918.9
В 1 16 км 8/8 900 м +12.8 +10.6 86 +11 +12 1006.4 918.9
В 1 16 км 8/8 240 м +12.8 +10.6 86 +11 +12 918.6
В 1 16 км 2/2 870 м +14.4 +10.6 78 +14 +17 1005.5 918.0 +9.4 +14.4 3.3
ЮВ 2
{4}
16 км 8/8 840 м +17.0 +10.0 63 +16 +17 916.5
ЮВ 3 16 км 5/5 840 м +16.7 +10.0 65 +16 +17 1003.3 916.5
Ю 2
{4}
16 км 10/2 1080 м
[Ac]
+18.3 +10.0 58 +18 +20 1001.0 914.6
Ю 3
{4}
16 км 10/8 1410 м
[Ac]
+18.3 +8.9 54 +18 +18 999.0 912.8
Ю 6
{8}
11 км слабый дождь 10/8 1410 м
[Ac]
+15.0 +10.6 75 +12 +12 913.7
Ю 4
{8}
6 км дождь 10/10 1410 м +13.9 +10.0 77 +11 +11 914.0
Ю 2 13 км слабый дождь 10/8 1650 м
[Ac]
+13.3 +10.6 84 +12 +12 1000.2 913.4
З 3
{4}
5 км дождь, дымка 10/10 810 м +12.2 +11.1 93 +9 +9 1000.5 913.4
ЮЗ 4
{7}
4 км сильный дождь, дымка 10/10 750 м +12.2 +10.0 86 +9 +9 914.0
ЮЗ 5
{8}
8 км дождь 10/10 750 м +12.2 +9.4 83 +8 +8 914.3
Местоположение метеостанции Tucson International Airport: широта 32.1315 долгота -110.9564 высота над уровнем моря 776 м.
В архиве по умолчанию представлена погода в Тусконе за последние 1-2 суток. Обновление информации о фактической погоде в базе происходит ежечасно! Архивные данные за месяц целиком и за предыдущие месяцы Вы можете получить, выбрав интересующий диапазон дат из раскрывающегося списка и нажав кнопку "Ввод!".
Внимание! Архив погоды МЕТАР в базе сайта по станциям, не включенным в климатический монитор, хранится не более 60 дней. Нет смысла пытаться выбрать более раннюю дату.
*Определитесь, кто Вы:
Внимание! Время в таблицах - местное (без учета летнего времени). Для получения всемирного времени необходимо вычесть поправку, которая равна -7 ч.
Смотрите также архив погоды в соседних городах и на ближайших метеорологических станциях:
Партнеры нашего сайта:
Молочные закваски купить в интернет магазине
Закваска для мягких и твердых сыров на основе пепсина. Оплата при получении
mcs-group.ru

Воткейс
воткейс
wotcases.org

     
Пояснения к столбцам:
  • Ветер - указаны скорость ветра в м/с - средняя за 10 мин, порывы в срок и между сроками (в фигурных скобках) и направление, откуда дует ветер: С - северный,
  • СВ - северо-восточный, В - восточный, ЮВ - юго-восточный, Ю - южный, ЮЗ - юго-западный, З - западный, СЗ - северо-западный.
  • Видимость - горизонтальная дальность видимости в метрах или километрах. При видимости от 1 до 10 км при отсутствии осадков обычно наблюдается дымка, при ухудшении видимости до 1 км и менее - туман. В сухую погоду видимость может ухудшаться дымом, пылью или мглою.
  • Явления - указаны атмосферные явления, наблюдавшиеся в срок или в последний час перед сроком; фигурными скобками обозначены явления, наблюдавшиеся между сроками (за 1-3 часа до срока); квадратными скобками обозначены град или гололедные отложения с указанием их диаметра в мм.
  • Облачность - указаны через наклонную черту общая и нижняя облачность в баллах и высота нижней границы облаков в метрах; квадратными скобками обозначены формы облаков: Ci - перистые, Cs - перисто-слоистые, Cc - перисто-кучевые, Ac - высококучевые, As - высокослоистые, Sc - слоисто-кучевые, Ns - слоисто-дождевые, Cu - кучевые, Cb - кучево-дождевые. Подробнее классификацию облаков см. в Атласе облаков (PDF).
  • T - Температура воздуха - температура, измеренная на высоте 2 м над землей.
  • Td - Температура точки росы - температура, при понижении до которой содержащийся в воздухе водяной пар достигнет насыщения.
  • f - Относительная влажность воздуха - влажноcть воздуха, измеренная на высоте 2 м над землей.
  • Te - Эффективная температура - температура, которую ощущает одетый по сезону человек в тени. Характеристика душности погоды. При расчете учитывается влияние влажности воздуха и скорости ветра на теплоощущения человека.
  • Tes - Эффективная температура на солнце - температура, которую ощущает человек, с поправкой на солнечный нагрев. Характеристика знойности погоды. Зависит от высоты солнца над горизонтом, облачности и скорости ветра. Ночью, в пасмурную погоду, а также при ветре 12 м/с и более поправка равна нулю.
  • P - Атмосферное давление - приведенное к уровню моря атмосферное давление.
  • Po - Атмосферное давление - измеренное на уровне метеостанции атмосферное давление.
  • Tmin - Минимальная температура - минимум температуры воздуха на высоте 2 м над землей.
  • Tmax - Максимальная температура - максимум температуры воздуха на высоте 2 м над землей.
  • R - Количество осадков - Количество выпавших осадков за период времени, мм. При наведении курсора мыши на число - период времени, за который выпало указанное количество осадков.
  • R24 - Количество осадков - Количество выпавших осадков за 24 часа, мм.
  • S - Снежный покров - Высота снежного покрова, см. При наведении курсора мыши на число - состояние снежного покрова и степень покрытия местности в баллах.